Location: *
(24.1397°S, 147.1035°W)
Time: 09:09:24
(UTC+00:00)

Daily predictions for brighter satellites

Satellite Brightness Start Highest point End
(mag) Time Altitude Azimuth Time Altitude Azimuth Time Altitude Azimuth
ISS -0.3 12:06:35 11° SSE 12:06:35 11° SSE 12:06:49 10° SSE
CENTAUR R/B 3.1 12:06:04 10° S 12:10:58 40° ESE 12:12:59 28° ENE
Cosmos 1934 Rocket 4.4 12:17:28 51° SW 12:17:28 51° SW 12:22:39 10° S
SL-16 R/B 2.6 12:11:51 10° SSE 12:18:05 67° ENE 12:18:46 62° NE
ADEOS Rocket 3.8 12:13:12 10° S 12:20:31 49° WSW 12:20:36 49° WSW
Cosmos 2278 Rocket 2.6 12:15:51 10° SSW 12:20:11 53° SSW 12:20:11 53° SSW
Cosmos 2123 Rocket 3.9 12:25:38 10° S 12:31:59 78° W 12:32:34 72° NW
Cosmos 1437 Rocket 4.2 12:32:36 36° E 12:32:36 36° E 12:36:24 10° SSE
CZ-3 Stage 3 3.4 12:30:47 34° SW 12:33:32 72° SSE 12:57:13 10° ENE
Cosmos 2237 Rocket 4.4 12:34:50 12° SW 12:34:50 12° SW 12:36:02 10° SW
ALOS 3.6 12:31:18 21° NE 12:33:51 37° ESE 12:38:09 10° S
In-Cosmos 22 Rocket 4.0 12:29:19 10° S 12:34:52 89° W 12:34:58 87° NNW
USA 238 DEB 4.0 12:29:23 10° SSW 12:35:57 61° ESE 12:42:14 10° NE
USA 238 4.0 12:29:30 10° SSW 12:36:03 61° ESE 12:42:20 10° NE
IRS-1C 4.2 12:39:40 61° WSW 12:39:40 61° WSW 12:44:22 10° SSW
SeaSat 1 3.2 12:40:42 10° S 12:44:51 38° SW 12:44:51 38° SW
Cosmos 1758 Rocket 3.9 12:41:15 10° S 12:44:46 57° SSW 12:44:46 57° SSW
Meteor 2-11 Rocket 4.5 12:43:45 44° N 12:45:51 78° E 12:52:03 10° S
Lacrosse 5 rocket 4.0 12:46:47 12° SW 12:46:47 12° SW 12:48:14 10° SSW
SL-16 R/B 3.1 12:48:05 33° WSW 12:48:05 33° WSW 12:52:54 10° S
RESURS DK-1 2.5 12:49:28 72° SE 12:49:28 72° SE 12:53:19 10° SSE
ARIANE 5 R/B 2.4 12:49:22 66° WNW 12:49:25 66° WNW 12:54:39 10° SSW
USA 306 3.0 12:51:19 67° ENE 12:51:19 67° ENE 12:55:21 10° SE
Cosmos 1302 Rocket 3.8 12:51:12 67° NNW 12:51:55 86° WSW 12:57:10 10° SSE
Cosmos 1605 Rocket 4.3 12:52:56 44° W 12:53:08 44° W 12:58:59 10° S
Cosmos 1825 2.6 12:49:50 10° S 12:52:56 57° S 12:52:56 57° S
Cosmos 1606 Rocket 4.4 12:59:32 36° SW 12:59:32 36° SW 13:02:54 10° SSW
Cosmos 2100 Rocket 4.2 12:56:31 22° N 13:00:32 68° E 13:06:42 10° S
Cosmos 1459 Rocket 4.4 12:57:58 18° N 13:02:48 65° E 13:09:09 10° SSE
USA 307 2.7 13:06:10 71° NNW 13:06:36 88° ENE 13:10:51 10° SE
Cosmos 1943 3.3 13:07:15 31° N 13:10:01 75° ENE 13:15:44 10° SSE
Cosmos 1447 Rocket 4.4 13:05:20 10° S 13:11:36 85° W 13:17:16 12° N
Meteor 2-1 Rocket 4.3 13:10:46 34° NNW 13:13:22 70° W 13:19:18 10° S
ATLAS CENTAUR R/B 2.9 13:11:14 20° NNE 13:13:47 35° ENE 13:17:50 10° SE
Cosmos 1484 Rocket 3.7 13:11:02 10° NNE 13:14:44 47° ESE 13:18:26 10° S
Cosmos 1726 Rocket 4.4 13:15:01 34° WSW 13:15:01 34° WSW 13:18:50 10° SSW
ASTRO E2 3.5 13:16:27 20° SW 13:18:55 48° SSE 13:22:49 10° E
Cosmos 2285 Rocket 3.9 13:15:37 27° NNW 13:19:15 81° WSW 13:25:37 10° SSE
Mugunghwa Rocket 4.1 13:14:48 20° WSW 13:19:18 75° S 13:25:57 10° E
Cosmos 2058 3.2 13:16:08 10° S 13:20:19 69° E 13:24:27 10° NNE
GPS 2-14 Rocket1 3.2 13:20:55 39° N 13:21:17 40° N 13:25:03 10° E
Meteor 1-28 Rocket 3.9 13:20:01 10° S 13:23:30 35° WSW 13:23:30 35° WSW
CZ-2C R/B 2.8 13:22:15 15° N 13:25:32 88° WNW 13:29:37 10° SSW
CZ-2C R/B 3.0 13:25:18 33° WNW 13:26:12 36° W 13:30:54 10° SSW
ERBS 4.0 13:26:14 19° NNE 13:27:42 26° ENE 13:30:31 10° ESE
Iridium 4 Rocket 3.2 13:23:43 10° SSW 13:27:51 50° W 13:29:34 31° NW
USA 308 3.2 13:27:24 37° WNW 13:28:41 51° SW 13:32:52 10° SSE
Cosmos 1461 3.0 13:29:24 28° NNW 13:31:32 76° ENE 13:35:51 10° SSE
ATLAS 2AS CENTAUR R/B 3.7 13:31:07 19° W 13:33:38 25° SW 13:38:44 10° S
ATLAS 2A CENTAUR R/B 2.4 13:33:22 16° NNE 13:33:54 17° NE 13:36:27 10° E
Cosmos 1992 Rocket 3.9 13:32:48 20° NNW 13:36:28 81° WSW 13:41:45 10° SSE
Cosmos 1242 Rocket 4.3 13:37:38 17° WSW 13:37:38 17° WSW 13:39:27 10° SW
Cosmos 1725 Rocket 4.3 13:31:37 10° N 13:37:54 73° E 13:44:15 10° S
DELTA 2 DEB (DPAF) 4.2 13:33:26 10° SSE 13:37:56 79° ENE 13:42:03 12° N
SEDSat Delta rocket 4.3 13:32:03 10° WSW 13:38:53 70° SSE 13:45:13 10° ENE
SWAS 4.5 13:35:23 10° SSW 13:39:41 83° ESE 13:43:58 10° NNE
ASC 2 Rocket 3.6 13:35:55 15° W 13:41:35 81° N 13:46:22 10° ENE
OAO 2 Rocket 3.3 13:37:04 10° WSW 13:42:24 82° NNW 13:47:37 10° ENE
Atlas 2A Centaur Rocket 3.0 13:40:47 18° W 13:43:47 76° NNW 13:59:38 10° ENE
Cosmos 1812 Rocket 4.0 13:40:46 10° N 13:45:06 61° E 13:49:26 10° SSE
PSLV R/B 3.5 13:44:20 10° N 13:48:27 60° W 13:52:40 10° SSW
Cosmos 1869 4.5 13:44:52 10° NNE 13:48:39 44° E 13:52:31 10° SSE
Cosmos-2242 4.4 13:44:55 10° NNE 13:48:55 40° E 13:53:00 10° SSE
Cosmos 2297 3.7 13:44:11 10° SSW 13:49:52 66° WNW 13:55:32 10° N
Cosmos 1633 2.8 13:47:33 10° SSW 13:51:04 47° W 13:54:28 10° NNW
Atlas Centaur 2 3.7 13:44:56 10° W 13:53:03 57° S 14:01:25 10° ESE
Skynet4D Del rocket 3.6 13:48:18 10° WSW 13:53:42 84° SSE 13:59:16 10° E
Cosmos 1802 Rocket 4.2 13:50:26 10° NNW 13:56:35 52° W 14:02:43 10° S
NOSS 3-2 (C) 4.0 13:54:45 10° SW 13:59:15 25° WNW 14:03:29 10° NNW
GOES 2 Rocket 4.4 13:51:39 10° WSW 13:59:51 72° S 14:05:53 10° E
CENTAUR R/B 3.7 13:58:31 10° W 13:59:50 13° W 13:59:50 13° W
SL-16 R/B 4.3 13:58:11 10° SW 14:00:57 13° WSW 14:03:43 10° W
Palapa 6 Rocket 3.0 13:59:52 15° W 14:03:04 55° N 14:07:35 10° ENE
Cosmos 1943 Rocket 2.5 14:02:33 10° SW 14:07:50 43° WNW 14:13:08 10° N
KM-V1 2.8 14:06:09 17° WNW 14:07:58 78° NNE 14:10:03 10° ESE
ALOS 4.0 14:09:47 12° WNW 14:11:14 14° W 14:13:35 10° WSW
SME Rocket 3.6 14:08:57 10° SSE 14:15:08 84° ENE 14:19:23 10° NNW
GPS 2-04 Rocket1 3.4 14:13:20 10° NW 14:16:26 35° NNE 14:19:35 10° E
Cosmos 2061 Rocket 4.3 14:11:36 10° NNW 14:17:30 46° W 14:23:29 10° S
Cosmos 1271 Rocket 4.4 14:14:38 10° NNE 14:18:11 35° E 14:21:45 10° SSE
H-2A R/B 3.7 14:15:10 10° WSW 14:19:11 46° S 14:35:23 10° E
CZ-4C R/B 3.7 14:19:57 10° S 14:23:51 49° WSW 14:27:54 10° NNW
Aurora 2 Rocket 4.2 14:18:36 10° WNW 14:27:16 56° NNE 14:33:24 10° E
Cosmos 1076 Rocket 3.7 14:24:07 10° SSW 14:28:21 51° W 14:32:33 10° NNW
Meteor 1-31 Rocket 2.8 14:25:14 10° N 14:29:09 86° WNW 14:33:08 10° SSW
Cosmos 1816 Rocket 4.5 14:24:50 10° SSW 14:30:57 67° W 14:37:00 10° N
CZ-3A R/B 4.2 15:14:02 10° WNW 15:46:26 67° N 15:50:54 10° E
